#timestamp,LO_Frequency,Hit 
1501383615.5,286047088.3,N
1501383635.3,286047090.2,N
1501383655.1,286047090.4,N
1501383675.9,286047088.5,N
1501383695.7,286047088.4,N
1501383715.5,286047090.2,N
1501383735.4,286047091.8,N
1501383755.2,286047092.1,N
1501383775.0,286047090.9,N
1501383775.9,286047090.9,N
1501383795.8,286047091.3,N
1501383815.6,286047091.0,N
1501383835.4,286047093.7,N
1501383855.2,286047092.7,N
1501383875.1,286047095.4,N
1501383876.0,286047095.4,N
1501383895.8,286047095.6,N
1501383915.6,286047094.7,N
1501383935.5,286047095.2,N
1501383955.3,286047092.7,N
1501383975.1,286047091.6,N
1501383995.9,286047095.6,N
1501384015.7,286047095.4,N
1501384035.5,286047095.6,N
1501384055.4,286047093.0,N
1501384075.2,286047095.0,N
1501384095.0,286047095.1,N
1501384095.9,286047095.1,N
1501384115.8,286047096.7,N
1501384135.6,286047097.0,N
1501384155.4,286047096.5,N
1501384175.2,286047096.5,N
1501384195.1,286047096.2,N
1501384196.0,286047096.2,N
1501384215.8,286047096.0,N
1501384235.6,286047096.6,N
1501384255.5,286047097.0,N
1501384275.3,286047097.0,N
1501384295.1,286047096.4,N
1501384315.9,286047096.0,N
1501384335.7,286047095.9,N
1501384355.5,286047098.8,N
1501384375.4,286047097.8,N
1501384395.2,286047099.6,N
1501384415.0,286047100.4,N
1501384415.9,286047100.4,N
1501384435.7,286047099.4,N
1501384455.6,286047099.9,N
1501384475.4,286047099.0,N
1501384495.2,286047099.2,N
1501384515.1,286047100.6,N
1501384516.0,286047100.6,N
1501384535.8,286047101.8,N
1501384555.6,286047099.7,N
1501384575.5,286047099.7,N
1501384595.3,286047097.9,N
1501384615.1,286047099.5,N
1501384635.9,286047097.5,N
1501384655.7,286047099.5,N
1501384675.5,286047101.4,N
1501384695.3,286047102.7,N
1501384715.2,286047101.8,N
1501384735.0,286047100.2,N
1501384735.9,286047100.2,N
1501384755.7,286047103.6,N
1501384775.6,286047101.1,N
1501384795.4,286047103.0,N
1501384815.2,286047100.5,N
1501384835.1,286047102.1,N
1501384836.0,286047102.1,N
1501384855.8,286047102.6,N
1501384875.6,286047103.5,N
1501384895.5,286047100.5,N
1501384915.3,286047103.6,N
1501384935.1,286047101.5,N
1501384955.9,286047101.8,N
1501384975.7,286047103.3,N
1501384995.5,286047101.0,N
1501385015.3,286047101.2,N
1501385035.2,286047098.9,N
1501385055.0,286047101.7,N
1501385055.9,286047101.7,N
1501385075.7,286047099.8,N
1501385095.6,286047101.1,N
1501385115.4,286047103.6,N
1501385135.2,286047104.5,N
1501385155.1,286047102.8,N
1501385156.0,286047102.8,N
1501385175.8,286047104.8,N
1501385195.6,286047106.8,N
1501385215.5,286047105.0,N
1501385235.3,286047106.6,N
1501385255.1,286047105.6,N
1501385275.8,286047104.6,N
1501385295.7,286047102.6,N
1501385315.5,286047102.1,N
1501385335.3,286047102.5,N
1501385355.2,286047105.2,N
1501385375.9,286047106.0,N
1501385395.7,286047104.3,N
1501385415.6,286047102.6,N
1501385435.4,286047102.2,N
1501385455.2,286047105.0,N
1501385475.1,286047102.9,N
1501385476.0,286047102.9,N
1501385495.8,286047105.2,N
1501385515.6,286047104.2,N
1501385535.4,286047105.0,N
1501385555.3,286047104.0,N
1501385575.1,286047104.5,N
1501385595.8,286047105.8,N
1501385615.7,286047107.6,N
1501385635.5,286047105.4,N
1501385655.3,286047110.0,N
1501385675.2,286047108.9,N
1501385695.9,286047106.9,N
1501385715.7,286047107.4,N
1501385735.6,286047109.3,N
1501385755.4,286047111.0,N
1501385775.2,286047109.1,N
1501385795.0,286047106.9,N
1501385795.9,286047106.9,N
1501385815.8,286047109.5,N
1501385835.6,286047109.9,N
1501385855.4,286047109.9,N
1501385875.3,286047111.6,Y
1501385895.1,286047051.3,N
1501385915.8,286047051.6,N
1501385935.7,286047052.4,N
1501385955.5,286047050.4,N
1501385975.3,286047050.5,N
1501385995.2,286047052.3,N
1501386015.9,286047049.8,N
1501386035.7,286047049.3,N
1501386055.6,286047051.0,N
1501386075.4,286047052.9,N
1501386095.2,286047050.9,N
1501386115.1,286047053.3,N
1501386116.0,286047053.3,N
1501386135.8,286047053.0,N
1501386155.6,286047055.2,N
1501386175.4,286047051.8,N
1501386195.3,286047051.1,N
1501386215.1,286047052.3,N
1501386235.8,286047051.1,N
1501386255.7,286047051.8,N
1501386275.5,286047051.6,N
1501386295.3,286047051.5,N
1501386315.2,286047052.7,N
1501386335.9,286047055.6,N
1501386355.7,286047054.9,N
1501386375.6,286047056.7,N
1501386395.4,286047055.5,N
1501386415.2,286047055.3,N
1501386435.0,286047056.8,N
1501386435.9,286047056.8,N
1501386455.8,286047056.4,N
1501386475.6,286047055.4,N
1501386495.4,286047057.2,N
1501386515.3,286047056.4,N
1501386535.1,286047057.2,N
1501386555.8,286047058.3,N
1501386575.7,286047056.5,N
1501386595.5,286047057.9,N
1501386615.3,286047058.4,N
1501386635.2,286047056.1,N
1501386655.9,286047056.6,N
1501386675.7,286047055.9,N
1501386695.5,286047057.0,N
1501386715.4,286047055.0,N
1501386735.2,286047057.1,N
1501386755.0,286047054.1,N
1501386755.9,286047054.1,N
1501386775.8,286047057.2,N
1501386795.6,286047058.6,N
1501386815.4,286047057.6,N
1501386835.3,286047058.4,N
1501386855.1,286047054.1,N
1501386856.0,286047054.1,N
1501386875.8,286047054.4,N
1501386895.7,286047056.7,N
1501386915.5,286047058.7,N
1501386935.3,286047058.0,N
1501386955.1,286047060.3,N
1501386975.9,286047057.8,N
1501386995.7,286047058.3,N
1501387015.5,286047058.7,N
1501387035.4,286047057.0,N
1501387055.2,286047056.6,N
1501387075.0,286047058.7,N
1501387075.9,286047058.7,N
1501387095.8,286047058.6,N
1501387115.6,286047056.1,N
1501387135.4,286047058.5,N
1501387155.3,286047058.7,N
1501387175.1,286047060.4,N
1501387176.0,286047060.4,N
1501387195.8,286047058.0,N
